Robstown, TX

12:28 PM CST on February 07, 2016 (GMT -0600)
Robstown

Weather History for KRBO - October, 2011

Change the Weather History Date:

Thursday, October 13, 2011

  Actual Average (KCRP) Record (KCRP)
Temperature  
Mean Temperature 82 °F 75 °F  
Max Temperature 92 °F 85 °F 94 °F (2015)
Min Temperature 73 °F 66 °F 46 °F (1977)
Degree Days  
Heating Degree Days 0 0  
Month to date heating degree days 0  
Since 1 July heating degree days 0  
Cooling Degree Days 18 11  
Month to date cooling degree days 154  
Year to date cooling degree days 3197  
Growing Degree Days 32 (Base 50)    
Moisture  
Dew Point 63 °F    
Average Humidity 66    
Maximum Humidity 100    
Minimum Humidity 13    
Precipitation  
Precipitation 0.00 in 0.12 in 2.18 in (1997)
Month to date precipitation 1.56  
Year to date precipitation 25.88  
Snow  
Snow 0.00 in - - ()
Month to date snowfall  
Since 1 July snowfall  
Since 1 September snowfall  
Snow Depth -    
Sea Level Pressure  
Sea Level Pressure 29.87 in    
Wind  
Wind Speed 7 mph (NE)    
Max Wind Speed 17 mph    
Max Gust Speed 24 mph    
Visibility 8 miles    
Events Fog , Rain , Thunderstorm    
T = Trace of Precipitation, MM = Missing Value Source: NWS Daily Summary

Daily Weather History Graph

Daily Weather History Graph

Search for Another Location

Airport or City:

Trip Planner

Search our weather history database for the weather conditions in past years. The results will help you decide how hot, cold, wet, or windy it might be!

Date:

Astronomy

Oct. 13, 2011 Rise Set
Actual Time 7:29 AM CDT 7:03 PM CDT
Civil Twilight 7:06 AM CDT 7:27 PM CDT
Nautical Twilight 6:38 AM CDT 7:54 PM CDT
Astronomical Twilight 6:11 AM CDT 8:21 PM CDT
Moon 7:55 PM CDT (10/13) 8:49 AM CDT (10/13)
Length of Visible Light 12h 21m
Length of Day
11h 34m
Full, 98% of the Moon is Illuminated
Oct 13
Full
Oct 19
Last Quarter
Oct 26
New
Nov 2
First Quarter
Nov 10
Full

Hourly Weather History & Observations

Time (CDT) Temp. Heat Index Dew Point Humidity Pressure Visibility Wind Dir Wind Speed Gust Speed Precip Events Conditions
12:15 AM 77.7 °F - 77.4 °F 99% 29.81 in 10.0 mi East 5.8 mph - N/A   Clear
12:35 AM 77.5 °F - 77.5 °F 100% 29.82 in 10.0 mi ESE 6.9 mph - N/A   Clear
12:55 AM 77.5 °F - 77.7 °F 100% 29.82 in 10.0 mi ESE 6.9 mph - N/A   Clear
1:15 AM 77.2 °F - 77.4 °F 100% 29.81 in 10.0 mi ESE 5.8 mph - N/A   Clear
1:35 AM 77.2 °F - 77.4 °F 100% 29.81 in 10.0 mi SE 6.9 mph - N/A   Clear
1:55 AM 77.4 °F - 77.5 °F 100% 29.83 in 10.0 mi South 4.6 mph - N/A   Clear
2:15 AM 76.6 °F - 76.6 °F 100% 29.83 in 10.0 mi South 3.5 mph - N/A   Clear
2:35 AM 76.3 °F - 76.3 °F 100% 29.83 in 10.0 mi South 4.6 mph - N/A   Clear
2:55 AM 75.7 °F - 75.7 °F 100% 29.83 in 10.0 mi SSE 5.8 mph - N/A   Clear
3:15 AM 75.6 °F - 75.6 °F 100% 29.83 in 10.0 mi South 5.8 mph - N/A   Clear
3:35 AM 75.4 °F - 75.4 °F 100% 29.83 in 10.0 mi South 4.6 mph - N/A   Clear
3:55 AM 75.2 °F - 75.2 °F 100% 29.83 in 10.0 mi Calm Calm - N/A   Clear
4:15 AM 75.2 °F - 75.2 °F 100% 29.83 in 7.0 mi South 3.5 mph - N/A   Clear
4:35 AM 74.8 °F - 75.0 °F 100% 29.83 in 4.0 mi South 4.6 mph - N/A   Mostly Cloudy
4:55 AM 74.7 °F - 74.8 °F 100% 29.83 in 0.2 mi Calm Calm - N/A Fog Fog
5:15 AM 74.3 °F - 74.5 °F 100% 29.83 in 0.5 mi Calm Calm - N/A Fog Fog
5:35 AM 74.3 °F - 74.3 °F 100% 29.84 in 0.5 mi Calm Calm - N/A Fog Fog
5:55 AM 73.9 °F - 74.1 °F 100% 29.85 in 0.5 mi Calm Calm - N/A Fog Fog
6:15 AM 73.4 °F - 73.6 °F 100% 29.86 in 0.8 mi Calm Calm - N/A   Overcast
6:35 AM 73.2 °F - 73.4 °F 100% 29.87 in 1.2 mi North 5.8 mph - N/A   Scattered Clouds
6:55 AM - - - N/A% 29.87 in 4.0 mi NNE 5.8 mph - N/A   Mostly Cloudy
7:15 AM 75.2 °F - 75.4 °F 100% 29.88 in 3.0 mi Calm Calm - N/A   Overcast
7:35 AM 75.6 °F - 75.6 °F 100% 29.88 in 4.0 mi NNW 4.6 mph - N/A Rain , Thunderstorm Rain
7:55 AM 75.6 °F - 75.6 °F 100% 29.89 in 3.0 mi North 6.9 mph - N/A Thunderstorm Overcast
8:35 AM 74.1 °F - 74.1 °F 100% 29.91 in 10.0 mi NE 9.2 mph - N/A Thunderstorm Thunderstorm
9:15 AM 73.4 °F - 73.4 °F 100% 29.93 in 10.0 mi ENE 9.2 mph - N/A   Scattered Clouds
9:35 AM 74.7 °F - 73.0 °F 95% 29.94 in 10.0 mi NE 9.2 mph - N/A   Mostly Cloudy
9:55 AM 77.2 °F - 72.0 °F 84% 29.94 in 10.0 mi NE 11.5 mph 16.1 mph N/A   Scattered Clouds
10:15 AM 78.4 °F - 72.9 °F 83% 29.94 in 10.0 mi NE 8.1 mph - N/A   Clear
10:35 AM 80.2 °F 84.0 °F 71.6 °F 75% 29.95 in 10.0 mi NNE 12.7 mph - N/A   Clear
10:55 AM 81.9 °F 85.6 °F 69.8 °F 67% 29.95 in 10.0 mi NE 13.8 mph - N/A   Clear
11:15 AM 83.1 °F 86.6 °F 68.9 °F 62% 29.94 in 10.0 mi ENE 13.8 mph 18.4 mph N/A   Clear
11:35 AM 83.7 °F 87.5 °F 69.6 °F 62% 29.94 in 10.0 mi NNE 11.5 mph 18.4 mph N/A   Clear
11:55 AM 84.7 °F 87.4 °F 67.1 °F 55% 29.94 in 10.0 mi NE 12.7 mph - N/A   Clear
12:15 PM 86.2 °F 88.2 °F 65.7 °F 50% 29.94 in 10.0 mi NE 13.8 mph - N/A   Clear
12:35 PM 87.3 °F 88.6 °F 64.4 °F 46% 29.93 in 10.0 mi NNE 12.7 mph 17.3 mph N/A   Clear
12:55 PM 88.0 °F 88.4 °F 62.1 °F 42% 29.92 in 10.0 mi NE 12.7 mph 18.4 mph N/A   Clear
1:15 PM 88.3 °F 88.4 °F 61.0 °F 40% 29.92 in 10.0 mi NNE 16.1 mph 20.7 mph N/A   Clear
1:35 PM 89.4 °F 88.7 °F 59.5 °F 36% 29.92 in 10.0 mi NNE 16.1 mph 21.9 mph N/A   Clear
1:55 PM 89.4 °F 87.9 °F 56.5 °F 33% 29.91 in 10.0 mi NE 12.7 mph 19.6 mph N/A   Clear
2:15 PM 90.3 °F - 49.8 °F 25% 29.90 in 10.0 mi ENE 17.3 mph 21.9 mph N/A   Clear
2:35 PM 90.7 °F - 47.3 °F 22% 29.89 in 10.0 mi ENE 12.7 mph 20.7 mph N/A   Clear
2:55 PM 91.2 °F - 48.7 °F 23% 29.88 in 10.0 mi North 9.2 mph 17.3 mph N/A   Clear
3:15 PM 91.6 °F - 46.6 °F 21% 29.87 in 10.0 mi NNE 13.8 mph 18.4 mph N/A   Clear
3:35 PM 91.6 °F - 43.7 °F 19% 29.87 in 10.0 mi NE 11.5 mph 18.4 mph N/A   Clear
3:55 PM 92.3 °F - 39.0 °F 16% 29.87 in 10.0 mi NNE 9.2 mph 24.2 mph N/A   Clear
4:15 PM 92.3 °F - 36.0 °F 14% 29.86 in 10.0 mi NE 11.5 mph 23.0 mph N/A   Clear
4:35 PM 92.3 °F - 35.6 °F 14% 29.86 in 10.0 mi NNE 10.4 mph 16.1 mph N/A   Clear
4:55 PM 92.3 °F - 35.1 °F 13% 29.86 in 10.0 mi NE 12.7 mph 19.6 mph N/A   Clear
5:15 PM 91.9 °F - 35.4 °F 14% 29.86 in 10.0 mi NNE 12.7 mph 20.7 mph N/A   Clear
5:35 PM 91.4 °F - 35.1 °F 14% 29.86 in 10.0 mi NE 11.5 mph 19.6 mph N/A   Clear
5:55 PM 90.9 °F - 34.5 °F 14% 29.86 in 10.0 mi NNE 9.2 mph - N/A   Clear
6:15 PM 90.1 °F - 34.9 °F 14% 29.86 in 10.0 mi NE 9.2 mph - N/A   Clear
6:35 PM 88.9 °F - 37.0 °F 16% 29.87 in 10.0 mi NE 9.2 mph - N/A   Clear
6:55 PM 87.1 °F - 38.8 °F 18% 29.87 in 10.0 mi NE 5.8 mph - N/A   Clear
7:15 PM 84.9 °F - 41.7 °F 22% 29.87 in 10.0 mi NE 5.8 mph - N/A   Clear
7:35 PM 83.3 °F - 43.0 °F 24% 29.87 in 10.0 mi NE 4.6 mph - N/A   Clear
7:55 PM 82.2 °F - 43.5 °F 25% 29.88 in 10.0 mi NE 4.6 mph - N/A   Clear
8:15 PM 81.1 °F - 44.2 °F 27% 29.89 in 10.0 mi NE 4.6 mph - N/A   Clear
8:35 PM 78.8 °F - 45.7 °F 31% 29.89 in 10.0 mi NNE 4.6 mph - N/A   Clear
8:55 PM 78.3 °F - 45.9 °F 32% 29.90 in 10.0 mi NNE 5.8 mph - N/A   Clear
9:15 PM 77.4 °F - 46.2 °F 33% 29.90 in 10.0 mi NNE 4.6 mph - N/A   Clear
9:35 PM 75.4 °F - 47.3 °F 37% 29.90 in 10.0 mi North 4.6 mph - N/A   Clear
9:55 PM 73.2 °F - 49.6 °F 43% 29.91 in 10.0 mi North 4.6 mph - N/A   Clear
10:15 PM 71.4 °F - 49.6 °F 46% 29.91 in 10.0 mi North 4.6 mph - N/A   Clear
10:35 PM 70.9 °F - 49.3 °F 46% 29.92 in 10.0 mi NNW 5.8 mph - N/A   Clear
10:55 PM 69.8 °F - 49.6 °F 49% 29.92 in 10.0 mi NW 4.6 mph - N/A   Clear
11:15 PM 69.8 °F - 48.9 °F 47% 29.92 in 10.0 mi NW 4.6 mph - N/A   Clear
11:35 PM 68.5 °F - 49.5 °F 50% 29.92 in 10.0 mi NNW 4.6 mph - N/A   Clear
11:55 PM 68.0 °F - 50.0 °F 52% 29.93 in 10.0 mi North 4.6 mph - N/A   Clear